Year,Month,Day,Hour,Minute,Value (Times are PST for temperature in C)
2008,08,02,00,00,11.60
2008,08,02,00,01,11.60
2008,08,02,00,02,11.60
2008,08,02,00,03,11.60
2008,08,02,00,04,11.60
2008,08,02,00,05,11.60
2008,08,02,00,06,11.60
2008,08,02,00,07,11.50
2008,08,02,00,08,11.40
2008,08,02,00,09,11.40
2008,08,02,00,10,11.50
2008,08,02,00,11,11.50
2008,08,02,00,12,11.50
2008,08,02,00,13,11.60
2008,08,02,00,14,11.60
2008,08,02,00,15,11.60
2008,08,02,00,16,11.60
2008,08,02,00,17,11.60
2008,08,02,00,18,11.60
2008,08,02,00,19,11.60
2008,08,02,00,20,11.70
2008,08,02,00,21,11.70
2008,08,02,00,22,11.70
2008,08,02,00,23,11.70
2008,08,02,00,24,11.70
2008,08,02,00,25,11.70
2008,08,02,00,26,11.70
2008,08,02,00,27,11.70
2008,08,02,00,28,11.60
2008,08,02,00,29,11.60
2008,08,02,00,30,11.60
2008,08,02,00,31,11.50
2008,08,02,00,32,11.50
2008,08,02,00,33,11.50
2008,08,02,00,34,11.40
2008,08,02,00,35,11.40
2008,08,02,00,36,11.40
2008,08,02,00,37,11.30
2008,08,02,00,38,11.30
2008,08,02,00,39,11.30
2008,08,02,00,40,11.30
2008,08,02,00,41,11.30
2008,08,02,00,42,11.20
2008,08,02,00,43,11.20
2008,08,02,00,44,11.20
2008,08,02,00,45,11.20
2008,08,02,00,46,11.20
2008,08,02,00,47,11.10
2008,08,02,00,48,11.10
2008,08,02,00,49,11.10
2008,08,02,00,50,11.10
2008,08,02,00,51,11.10
2008,08,02,00,52,11.10
2008,08,02,00,53,11.10
2008,08,02,00,54,11.20
2008,08,02,00,55,11.20
2008,08,02,00,56,11.20
2008,08,02,00,57,11.20
2008,08,02,00,58,11.20
2008,08,02,00,59,11.10
2008,08,02,01,00,11.10
2008,08,02,01,01,11.10
2008,08,02,01,02,11.10
2008,08,02,01,03,11.10
2008,08,02,01,04,11.10
2008,08,02,01,05,11.10
2008,08,02,01,06,11.10
2008,08,02,01,07,11.10
2008,08,02,01,08,11.10
2008,08,02,01,09,11.10
2008,08,02,01,10,11.10
2008,08,02,01,11,11.20
2008,08,02,01,12,11.20
2008,08,02,01,13,11.20
2008,08,02,01,14,11.20
2008,08,02,01,15,11.20
2008,08,02,01,16,11.20
2008,08,02,01,17,11.30
2008,08,02,01,18,11.30
2008,08,02,01,19,11.30
2008,08,02,01,20,11.30
2008,08,02,01,21,11.30
2008,08,02,01,22,11.30
2008,08,02,01,23,11.30
2008,08,02,01,24,11.30
2008,08,02,01,25,11.40
2008,08,02,01,26,11.40
2008,08,02,01,27,11.40
2008,08,02,01,28,11.50
2008,08,02,01,29,11.50
2008,08,02,01,30,11.50
2008,08,02,01,31,11.50
2008,08,02,01,32,11.40
2008,08,02,01,33,11.40
2008,08,02,01,34,11.40
2008,08,02,01,35,11.40
2008,08,02,01,36,11.50
2008,08,02,01,37,11.40
2008,08,02,01,38,11.40
2008,08,02,01,39,11.40
2008,08,02,01,40,11.30
2008,08,02,01,41,11.30
2008,08,02,01,42,11.20
2008,08,02,01,43,11.20
2008,08,02,01,44,11.10
2008,08,02,01,45,11.10
2008,08,02,01,46,11.10
2008,08,02,01,47,11.10
2008,08,02,01,48,11.10
2008,08,02,01,49,11.10
2008,08,02,01,50,11.10
2008,08,02,01,51,11.10
2008,08,02,01,52,11.10
2008,08,02,01,53,11.10
2008,08,02,01,54,11.00
2008,08,02,01,55,11.00
2008,08,02,01,56,11.00
2008,08,02,01,57,11.00
2008,08,02,01,58,11.00
2008,08,02,01,59,11.00
2008,08,02,02,00,10.90
2008,08,02,02,01,10.90
2008,08,02,02,02,10.90
2008,08,02,02,03,10.90
2008,08,02,02,04,10.90
2008,08,02,02,05,10.90
2008,08,02,02,06,10.80
2008,08,02,02,07,10.80
2008,08,02,02,08,10.80
2008,08,02,02,09,10.80
2008,08,02,02,10,10.80
2008,08,02,02,11,10.80
2008,08,02,02,12,10.70
2008,08,02,02,13,10.70
2008,08,02,02,14,10.70
2008,08,02,02,15,10.60
2008,08,02,02,16,10.60
2008,08,02,02,17,10.60
2008,08,02,02,18,10.60
2008,08,02,02,19,10.60
2008,08,02,02,20,10.60
2008,08,02,02,21,10.60
2008,08,02,02,22,10.60
2008,08,02,02,23,10.60
2008,08,02,02,24,10.60
2008,08,02,02,25,10.60
2008,08,02,02,26,10.60
2008,08,02,02,27,10.60
2008,08,02,02,28,10.60
2008,08,02,02,29,10.60
2008,08,02,02,30,10.60
2008,08,02,02,31,10.60
2008,08,02,02,32,10.70
2008,08,02,02,33,10.70
2008,08,02,02,34,10.70
2008,08,02,02,35,10.80
2008,08,02,02,36,10.80
2008,08,02,02,37,10.80
2008,08,02,02,38,10.80
2008,08,02,02,39,10.80
2008,08,02,02,40,10.70
2008,08,02,02,41,10.70
2008,08,02,02,42,10.60
2008,08,02,02,43,10.60
2008,08,02,02,44,10.50
2008,08,02,02,45,10.50
2008,08,02,02,46,10.40
2008,08,02,02,47,10.40
2008,08,02,02,48,10.40
2008,08,02,02,49,10.40
2008,08,02,02,50,10.40
2008,08,02,02,51,10.40
2008,08,02,02,52,10.40
2008,08,02,02,53,10.40
2008,08,02,02,54,10.40
2008,08,02,02,55,10.40
2008,08,02,02,56,10.40
2008,08,02,02,57,10.40
2008,08,02,02,58,10.40
2008,08,02,02,59,10.40
2008,08,02,03,00,10.40
2008,08,02,03,01,10.40
2008,08,02,03,02,10.40
2008,08,02,03,03,10.40
2008,08,02,03,04,10.40
2008,08,02,03,05,10.30
2008,08,02,03,06,10.30
2008,08,02,03,07,10.30
2008,08,02,03,08,10.30
2008,08,02,03,09,10.30
2008,08,02,03,10,10.30
2008,08,02,03,11,10.20
2008,08,02,03,12,10.20
2008,08,02,03,13,10.20
2008,08,02,03,14,10.20
2008,08,02,03,15,10.20
2008,08,02,03,16,10.10
2008,08,02,03,17,10.10
2008,08,02,03,18,10.10
2008,08,02,03,19,10.20
2008,08,02,03,20,10.20
2008,08,02,03,21,10.20
2008,08,02,03,22,10.10
2008,08,02,03,23,10.10
2008,08,02,03,24,10.10
2008,08,02,03,25,10.10
2008,08,02,03,26,10.00
2008,08,02,03,27,10.00
2008,08,02,03,28,9.90
2008,08,02,03,29,9.90
2008,08,02,03,30,9.90
2008,08,02,03,31,9.90
2008,08,02,04,02,9.70
2008,08,02,04,03,9.70
2008,08,02,04,04,9.70
2008,08,02,04,05,9.70
2008,08,02,04,06,9.70
2008,08,02,04,07,9.70
2008,08,02,04,08,9.70
2008,08,02,04,09,9.70
2008,08,02,04,10,9.70
2008,08,02,04,11,9.70
2008,08,02,04,12,9.70
2008,08,02,04,13,9.70
2008,08,02,04,14,9.80
2008,08,02,04,15,9.80
2008,08,02,04,16,9.80
2008,08,02,04,17,9.90
2008,08,02,04,18,9.90
2008,08,02,04,19,9.90
2008,08,02,04,20,9.90
2008,08,02,04,21,9.90
2008,08,02,04,22,9.90
2008,08,02,04,23,9.90
2008,08,02,04,24,9.90
2008,08,02,04,25,10.00
2008,08,02,04,26,10.00
2008,08,02,04,27,10.10
2008,08,02,04,28,10.10
2008,08,02,04,29,10.10
2008,08,02,04,30,10.10
2008,08,02,04,31,10.20
2008,08,02,04,32,10.20
2008,08,02,04,33,10.20
2008,08,02,04,34,10.30
2008,08,02,04,35,10.30
2008,08,02,04,36,10.30
2008,08,02,04,37,10.30
2008,08,02,04,38,10.30
2008,08,02,04,39,10.40
2008,08,02,04,40,10.40
2008,08,02,04,41,10.40
2008,08,02,04,42,10.50
2008,08,02,04,43,10.50
2008,08,02,04,44,10.60
2008,08,02,04,45,10.60
2008,08,02,04,46,10.60
2008,08,02,04,47,10.60
2008,08,02,04,48,10.60
2008,08,02,04,49,10.60
2008,08,02,04,50,10.60
2008,08,02,04,51,10.60
2008,08,02,04,52,10.60
2008,08,02,04,53,10.60
2008,08,02,04,54,10.60
2008,08,02,04,55,10.60
2008,08,02,04,56,10.60
2008,08,02,04,57,10.60
2008,08,02,04,58,10.60
2008,08,02,04,59,10.60
2008,08,02,05,00,10.60
2008,08,02,05,01,10.60
2008,08,02,05,02,10.60
2008,08,02,05,03,10.60
2008,08,02,05,04,10.70
2008,08,02,05,05,10.70
2008,08,02,05,06,10.70
2008,08,02,05,07,10.70
2008,08,02,05,08,10.70
2008,08,02,05,09,10.70
2008,08,02,05,10,10.70
2008,08,02,05,11,10.70
2008,08,02,05,12,10.70
2008,08,02,05,13,10.70
2008,08,02,05,14,10.70
2008,08,02,05,15,10.70
2008,08,02,05,16,10.70
2008,08,02,05,17,10.70
2008,08,02,05,18,10.70
2008,08,02,05,19,10.70
2008,08,02,05,20,10.60
2008,08,02,05,21,10.60
2008,08,02,05,22,10.60
2008,08,02,05,23,10.60
2008,08,02,05,24,10.60
2008,08,02,05,25,10.60
2008,08,02,05,26,10.60
2008,08,02,05,27,10.60
2008,08,02,05,28,10.60
2008,08,02,05,29,10.60
2008,08,02,05,30,10.60
2008,08,02,05,31,10.60
2008,08,02,05,32,10.60
2008,08,02,05,33,10.60
2008,08,02,05,34,10.60
2008,08,02,05,35,10.60
2008,08,02,05,36,10.60
2008,08,02,05,37,10.60
2008,08,02,05,38,10.60
2008,08,02,05,39,10.60
2008,08,02,05,40,10.60
2008,08,02,05,41,10.60
2008,08,02,05,42,10.60
2008,08,02,05,43,10.60
2008,08,02,05,44,10.60
2008,08,02,05,45,10.60
2008,08,02,05,46,10.60
2008,08,02,05,47,10.60
2008,08,02,05,48,10.60
2008,08,02,05,49,10.60
2008,08,02,05,50,10.60
2008,08,02,05,51,10.60
2008,08,02,05,52,10.70
2008,08,02,05,53,10.70
2008,08,02,05,54,10.70
2008,08,02,05,55,10.70
2008,08,02,05,56,10.70
2008,08,02,05,57,10.70
2008,08,02,05,58,10.70
2008,08,02,05,59,10.70
2008,08,02,06,00,10.70
2008,08,02,06,01,10.70
2008,08,02,06,02,10.70
2008,08,02,06,03,10.70
2008,08,02,06,04,10.70
2008,08,02,06,05,10.70
2008,08,02,06,06,10.70
2008,08,02,06,07,10.70
2008,08,02,06,08,10.80
2008,08,02,06,09,10.80
2008,08,02,06,10,10.80
2008,08,02,06,11,10.80
2008,08,02,06,12,10.80
2008,08,02,06,13,10.80
2008,08,02,06,14,10.80
2008,08,02,06,15,10.80
2008,08,02,06,16,10.90
2008,08,02,06,17,10.90
2008,08,02,06,18,10.90
2008,08,02,06,19,10.90
2008,08,02,06,20,10.90
2008,08,02,06,21,11.00
2008,08,02,06,22,11.00
2008,08,02,06,23,11.00
2008,08,02,06,24,11.00
2008,08,02,06,25,11.00
2008,08,02,06,26,11.00
2008,08,02,06,27,11.00
2008,08,02,06,28,11.00
2008,08,02,06,29,11.00
2008,08,02,06,30,11.00
2008,08,02,06,31,11.00
2008,08,02,06,32,11.00
2008,08,02,06,33,11.00
2008,08,02,06,34,11.10
2008,08,02,06,35,11.10
2008,08,02,06,36,11.10
2008,08,02,06,37,11.10
2008,08,02,06,38,11.10
2008,08,02,06,39,11.10
2008,08,02,06,40,11.10
2008,08,02,06,41,11.10
2008,08,02,06,42,11.20
2008,08,02,06,43,11.20
2008,08,02,06,44,11.20
2008,08,02,06,45,11.20
2008,08,02,06,46,11.20
2008,08,02,06,47,11.20
2008,08,02,06,48,11.20
2008,08,02,06,49,11.20
2008,08,02,06,50,11.30
2008,08,02,06,51,11.30
2008,08,02,06,52,11.30
2008,08,02,06,53,11.30
2008,08,02,06,54,11.30
2008,08,02,06,55,11.30
2008,08,02,06,56,11.30
2008,08,02,06,57,11.30
2008,08,02,06,58,11.30
2008,08,02,06,59,11.30
2008,08,02,07,00,11.40
2008,08,02,07,01,11.40
2008,08,02,07,02,11.40
2008,08,02,07,03,11.40
2008,08,02,07,04,11.40
2008,08,02,07,05,11.40
2008,08,02,07,06,11.40
2008,08,02,07,07,11.40
2008,08,02,07,08,11.40
2008,08,02,07,09,11.40
2008,08,02,07,10,11.40
2008,08,02,07,11,11.40
2008,08,02,07,12,11.40
2008,08,02,07,13,11.40
2008,08,02,07,14,11.40
2008,08,02,07,15,11.40
2008,08,02,07,16,11.50
2008,08,02,07,17,11.50
2008,08,02,07,18,11.50
2008,08,02,07,19,11.60
2008,08,02,07,20,11.60
2008,08,02,07,21,11.60
2008,08,02,07,22,11.60
2008,08,02,07,23,11.60
2008,08,02,07,24,11.60
2008,08,02,07,25,11.60
2008,08,02,07,26,11.60
2008,08,02,07,27,11.60
2008,08,02,07,28,11.60
2008,08,02,07,29,11.60
2008,08,02,07,30,11.60
2008,08,02,07,31,11.60
2008,08,02,07,32,11.60
2008,08,02,07,33,11.60
2008,08,02,07,34,11.60
2008,08,02,07,35,11.60
2008,08,02,07,36,11.70
2008,08,02,07,37,11.70
2008,08,02,07,38,11.70
2008,08,02,07,39,11.70
2008,08,02,07,40,11.70
2008,08,02,07,41,11.80
2008,08,02,07,42,11.80
2008,08,02,07,43,11.80
2008,08,02,07,44,11.90
2008,08,02,07,45,11.90
2008,08,02,07,46,11.90
2008,08,02,07,47,11.90
2008,08,02,07,48,11.90
2008,08,02,07,49,11.90
2008,08,02,07,50,12.00
2008,08,02,07,51,12.00
2008,08,02,07,52,12.10
2008,08,02,07,53,12.10
2008,08,02,07,54,12.10
2008,08,02,07,55,12.10
2008,08,02,07,56,12.10
2008,08,02,07,57,12.20
2008,08,02,07,58,12.20
2008,08,02,07,59,12.20
2008,08,02,08,00,12.20
2008,08,02,08,01,12.30
2008,08,02,08,02,12.30
2008,08,02,08,03,12.30
2008,08,02,08,04,12.30
2008,08,02,08,05,12.40
2008,08,02,08,06,12.40
2008,08,02,08,07,12.40
2008,08,02,08,08,12.40
2008,08,02,08,09,12.50
2008,08,02,08,10,12.50
2008,08,02,08,11,12.60
2008,08,02,08,12,12.60
2008,08,02,08,13,12.60
2008,08,02,08,14,12.70
2008,08,02,08,15,12.70
2008,08,02,08,16,12.70
2008,08,02,08,17,12.70
2008,08,02,08,18,12.80
2008,08,02,08,19,12.80
2008,08,02,08,20,12.80
2008,08,02,08,21,12.80
2008,08,02,08,22,12.90
2008,08,02,08,23,12.90
2008,08,02,08,24,12.90
2008,08,02,08,25,13.00
2008,08,02,08,26,13.00
2008,08,02,08,27,13.00
2008,08,02,08,28,13.10
2008,08,02,08,29,13.10
2008,08,02,08,30,13.10
2008,08,02,08,31,13.10
2008,08,02,08,32,13.10
2008,08,02,08,33,13.10
2008,08,02,08,34,13.20
2008,08,02,08,35,13.20
2008,08,02,08,36,13.20
2008,08,02,08,37,13.20
2008,08,02,08,38,13.30
2008,08,02,08,39,13.30
2008,08,02,08,40,13.40
2008,08,02,08,41,13.40
2008,08,02,08,42,13.40
2008,08,02,08,43,13.50
2008,08,02,08,44,13.60
2008,08,02,08,45,13.60
2008,08,02,08,46,13.70
2008,08,02,08,47,13.70
2008,08,02,08,48,13.80
2008,08,02,08,49,13.80
2008,08,02,08,50,13.90
2008,08,02,08,51,13.90
2008,08,02,08,52,14.00
2008,08,02,08,53,14.10
2008,08,02,08,54,14.10
2008,08,02,08,55,14.20
2008,08,02,08,56,14.30
2008,08,02,08,57,14.40
2008,08,02,08,58,14.50
2008,08,02,08,59,14.60
2008,08,02,09,00,14.70
2008,08,02,09,01,14.80
2008,08,02,09,02,14.90
2008,08,02,09,03,15.00
2008,08,02,09,04,15.00
2008,08,02,09,05,15.20
2008,08,02,09,06,15.30
2008,08,02,09,07,15.50
2008,08,02,09,08,15.60
2008,08,02,09,09,15.70
2008,08,02,09,10,15.80
2008,08,02,09,11,15.90
2008,08,02,09,12,15.90
2008,08,02,09,13,15.80
2008,08,02,09,14,15.80
2008,08,02,09,15,15.80
2008,08,02,09,16,15.70
2008,08,02,09,17,15.70
2008,08,02,09,18,15.70
2008,08,02,09,19,15.80
2008,08,02,09,20,15.80
2008,08,02,09,21,15.90
2008,08,02,09,22,15.90
2008,08,02,09,23,15.90
2008,08,02,09,24,15.90
2008,08,02,09,25,15.90
2008,08,02,09,26,15.90
2008,08,02,09,27,15.90
2008,08,02,09,28,16.00
2008,08,02,09,29,16.00
2008,08,02,09,30,16.10
2008,08,02,09,31,16.10
2008,08,02,09,32,16.20
2008,08,02,09,33,16.20
2008,08,02,09,34,16.30
2008,08,02,09,35,16.40
2008,08,02,09,36,16.40
2008,08,02,09,37,16.50
2008,08,02,09,38,16.60
2008,08,02,09,39,16.60
2008,08,02,09,40,16.60
2008,08,02,09,41,16.60
2008,08,02,09,42,16.60
2008,08,02,09,43,16.60
2008,08,02,09,44,16.70
2008,08,02,09,45,16.70
2008,08,02,09,46,16.70
2008,08,02,09,47,16.70
2008,08,02,09,48,16.70
2008,08,02,09,49,16.80
2008,08,02,09,50,16.90
2008,08,02,09,51,16.90
2008,08,02,09,52,16.90
2008,08,02,09,53,16.90
2008,08,02,09,54,16.90
2008,08,02,09,55,16.90
2008,08,02,09,56,17.00
2008,08,02,09,57,17.00
2008,08,02,09,58,16.90
2008,08,02,09,59,16.90
2008,08,02,10,00,17.00
2008,08,02,10,01,17.10
2008,08,02,10,02,17.20
2008,08,02,10,03,17.20
2008,08,02,10,04,17.20
2008,08,02,10,05,17.30
2008,08,02,10,06,17.30
2008,08,02,10,07,17.30
2008,08,02,10,08,17.30
2008,08,02,10,09,17.30
2008,08,02,10,10,17.20
2008,08,02,10,11,17.10
2008,08,02,10,12,17.10
2008,08,02,10,13,17.00
2008,08,02,10,14,16.90
2008,08,02,10,15,16.80
2008,08,02,10,16,16.80
2008,08,02,10,17,16.80
2008,08,02,10,18,16.80
2008,08,02,10,19,16.90
2008,08,02,10,20,16.90
2008,08,02,10,21,16.80
2008,08,02,10,22,16.80
2008,08,02,10,23,16.90
2008,08,02,10,24,16.90
2008,08,02,10,25,16.90
2008,08,02,10,26,16.90
2008,08,02,10,27,16.90
2008,08,02,10,28,16.90
2008,08,02,10,29,16.90
2008,08,02,10,30,16.90
2008,08,02,10,31,16.80
2008,08,02,10,32,16.80
2008,08,02,10,33,16.80
2008,08,02,10,34,16.80
2008,08,02,10,35,16.90
2008,08,02,10,36,16.90
2008,08,02,10,37,17.00
2008,08,02,10,38,17.20
2008,08,02,10,39,17.20
2008,08,02,10,40,17.30
2008,08,02,10,41,17.40
2008,08,02,10,42,17.50
2008,08,02,10,43,17.60
2008,08,02,10,44,17.60
2008,08,02,10,45,17.60
2008,08,02,10,46,17.60
2008,08,02,10,47,17.60
2008,08,02,10,48,17.70
2008,08,02,10,49,17.70
2008,08,02,10,50,17.70
2008,08,02,10,51,17.70
2008,08,02,10,52,17.60
2008,08,02,10,53,17.60
2008,08,02,10,54,17.60
2008,08,02,10,55,17.60
2008,08,02,10,56,17.60
2008,08,02,10,57,17.60
2008,08,02,10,58,17.60
2008,08,02,10,59,17.60
2008,08,02,11,00,17.60
2008,08,02,11,01,17.70
2008,08,02,11,02,17.60
2008,08,02,11,03,17.50
2008,08,02,11,04,17.40
2008,08,02,11,05,17.40
2008,08,02,11,06,17.30
2008,08,02,11,07,17.30
2008,08,02,11,08,17.20
2008,08,02,11,09,17.20
2008,08,02,11,10,17.20
2008,08,02,11,11,17.20
2008,08,02,11,12,17.20
2008,08,02,11,13,17.20
2008,08,02,11,14,17.20
2008,08,02,11,15,17.20
2008,08,02,11,16,17.30
2008,08,02,11,17,17.30
2008,08,02,11,18,17.30
2008,08,02,11,19,17.30
2008,08,02,11,20,17.30
2008,08,02,11,21,17.30
2008,08,02,11,22,17.30
2008,08,02,11,23,17.30
2008,08,02,11,24,17.30
2008,08,02,11,25,17.30
2008,08,02,11,26,17.20
2008,08,02,11,27,17.20
2008,08,02,11,28,17.30
2008,08,02,11,29,17.40
2008,08,02,11,30,17.50
2008,08,02,11,31,17.60
2008,08,02,11,32,17.70
2008,08,02,11,33,17.70
2008,08,02,11,34,17.80
2008,08,02,11,35,17.80
2008,08,02,11,36,17.90
2008,08,02,11,37,18.00
2008,08,02,11,38,18.00
2008,08,02,11,39,17.90
2008,08,02,11,40,17.90
2008,08,02,11,41,17.80
2008,08,02,11,42,17.80
2008,08,02,11,43,17.70
2008,08,02,11,44,17.70
2008,08,02,11,45,17.80
2008,08,02,11,46,18.00
2008,08,02,11,47,18.20
2008,08,02,11,48,18.20
2008,08,02,11,49,18.20
2008,08,02,11,50,18.30
2008,08,02,11,51,18.40
2008,08,02,11,52,18.60
2008,08,02,11,53,18.70
2008,08,02,11,54,18.60
2008,08,02,11,55,18.60
2008,08,02,11,56,18.70
2008,08,02,11,57,18.70
2008,08,02,11,58,18.60
2008,08,02,11,59,18.60
2008,08,02,12,00,18.70
2008,08,02,12,01,18.80
2008,08,02,12,02,18.90
2008,08,02,12,03,18.90
2008,08,02,12,04,18.80
2008,08,02,12,05,18.60
2008,08,02,12,06,18.60
2008,08,02,12,07,18.60
2008,08,02,12,08,18.50
2008,08,02,12,09,18.50
2008,08,02,12,10,18.50
2008,08,02,12,11,18.40
2008,08,02,12,12,18.40
2008,08,02,12,13,18.50
2008,08,02,12,14,18.50
2008,08,02,12,15,18.50
2008,08,02,12,16,18.60
2008,08,02,12,17,18.70
2008,08,02,12,18,18.70
2008,08,02,12,19,18.70
2008,08,02,12,20,18.70
2008,08,02,12,21,18.70
2008,08,02,12,22,18.60
2008,08,02,12,23,18.70
2008,08,02,12,24,18.80
2008,08,02,12,25,18.80
2008,08,02,12,26,18.80
2008,08,02,12,27,18.80
2008,08,02,12,28,18.90
2008,08,02,12,29,18.90
2008,08,02,12,30,18.90
2008,08,02,12,31,18.90
2008,08,02,12,32,18.90
2008,08,02,12,33,18.90
2008,08,02,12,34,18.90
2008,08,02,12,35,19.00
2008,08,02,12,36,19.10
2008,08,02,12,37,19.20
2008,08,02,12,38,19.20
2008,08,02,12,39,19.20
2008,08,02,12,40,19.30
2008,08,02,12,41,19.30
2008,08,02,12,42,19.30
2008,08,02,12,43,19.20
2008,08,02,12,44,19.10
2008,08,02,12,45,19.00
2008,08,02,12,46,18.90
2008,08,02,12,47,18.90
2008,08,02,12,48,19.00
2008,08,02,12,49,19.00
2008,08,02,12,50,19.10
2008,08,02,12,51,19.00
2008,08,02,12,52,19.00
2008,08,02,12,53,18.90
2008,08,02,12,54,18.90
2008,08,02,12,55,19.00
2008,08,02,12,56,19.10
2008,08,02,12,57,19.20
2008,08,02,12,58,19.10
2008,08,02,12,59,19.00
2008,08,02,13,00,18.90
2008,08,02,13,01,18.90
2008,08,02,13,02,18.90
2008,08,02,13,03,18.90
2008,08,02,13,04,18.90
2008,08,02,13,05,18.90
2008,08,02,13,06,19.00
2008,08,02,13,07,19.00
2008,08,02,13,08,19.00
2008,08,02,13,09,19.10
2008,08,02,13,10,19.10
2008,08,02,13,11,19.10
2008,08,02,13,12,19.10
2008,08,02,13,13,19.10
2008,08,02,13,14,19.10
2008,08,02,13,15,19.10
2008,08,02,13,16,19.10
2008,08,02,13,17,19.10
2008,08,02,13,18,19.00
2008,08,02,13,19,18.90
2008,08,02,13,20,18.80
2008,08,02,13,21,18.70
2008,08,02,13,22,18.70
2008,08,02,13,23,18.60
2008,08,02,13,24,18.50
2008,08,02,13,25,18.60
2008,08,02,13,26,18.70
2008,08,02,13,27,18.80
2008,08,02,13,28,18.90
2008,08,02,13,29,19.00
2008,08,02,13,30,18.90
2008,08,02,13,31,18.90
2008,08,02,13,32,18.80
2008,08,02,13,33,18.80
2008,08,02,13,34,18.90
2008,08,02,13,35,18.90
2008,08,02,13,36,19.00
2008,08,02,13,37,19.00
2008,08,02,13,38,19.10
2008,08,02,13,39,19.10
2008,08,02,13,40,19.00
2008,08,02,13,41,18.90
2008,08,02,13,42,18.90
2008,08,02,13,43,18.80
2008,08,02,13,44,18.80
2008,08,02,13,45,18.80
2008,08,02,13,46,18.80
2008,08,02,13,47,18.80
2008,08,02,13,48,18.80
2008,08,02,13,49,18.80
2008,08,02,13,50,18.90
2008,08,02,13,51,18.90
2008,08,02,13,52,18.90
2008,08,02,13,53,18.90
2008,08,02,13,54,18.70
2008,08,02,13,55,18.70
2008,08,02,13,56,18.70
2008,08,02,13,57,18.70
2008,08,02,13,58,18.60
2008,08,02,13,59,18.60
2008,08,02,14,00,18.50
2008,08,02,14,01,18.50
2008,08,02,14,02,18.50
2008,08,02,14,03,18.50
2008,08,02,14,04,18.60
2008,08,02,14,05,18.50
2008,08,02,14,06,18.50
2008,08,02,14,07,18.40
2008,08,02,14,08,18.50
2008,08,02,14,09,18.50
2008,08,02,14,10,18.50
2008,08,02,14,11,18.60
2008,08,02,14,12,18.60
2008,08,02,14,13,18.70
2008,08,02,14,14,18.80
2008,08,02,14,15,18.90
2008,08,02,14,16,18.90
2008,08,02,14,17,19.00
2008,08,02,14,18,19.10
2008,08,02,14,19,19.00
2008,08,02,14,20,19.00
2008,08,02,14,21,18.90
2008,08,02,14,22,18.90
2008,08,02,14,23,18.90
2008,08,02,14,24,19.00
2008,08,02,14,25,19.20
2008,08,02,14,26,19.20
2008,08,02,14,27,19.30
2008,08,02,14,28,19.30
2008,08,02,14,29,19.30
2008,08,02,14,30,19.30
2008,08,02,14,31,19.30
2008,08,02,14,32,19.40
2008,08,02,14,33,19.30
2008,08,02,14,34,19.20
2008,08,02,14,35,19.10
2008,08,02,14,36,19.10
2008,08,02,14,37,19.20
2008,08,02,14,38,19.10
2008,08,02,14,39,19.10
2008,08,02,14,40,19.20
2008,08,02,14,41,19.20
2008,08,02,14,42,19.30
2008,08,02,14,43,19.30
2008,08,02,14,44,19.30
2008,08,02,14,45,19.40
2008,08,02,14,46,19.40
2008,08,02,14,47,19.40
2008,08,02,14,48,19.20
2008,08,02,14,49,19.00
2008,08,02,14,50,19.00
2008,08,02,14,51,18.90
2008,08,02,14,52,18.90
2008,08,02,14,53,19.00
2008,08,02,14,54,19.10
2008,08,02,14,55,19.20
2008,08,02,14,56,19.30
2008,08,02,14,57,19.40
2008,08,02,14,58,19.40
2008,08,02,14,59,19.40
2008,08,02,15,00,19.50
2008,08,02,15,01,19.60
2008,08,02,15,02,19.70
2008,08,02,15,03,19.70
2008,08,02,15,04,19.70
2008,08,02,15,05,19.60
2008,08,02,15,06,19.60
2008,08,02,15,07,19.50
2008,08,02,15,08,19.50
2008,08,02,15,09,19.30
2008,08,02,15,10,19.30
2008,08,02,15,11,19.20
2008,08,02,15,12,19.20
2008,08,02,15,13,19.20
2008,08,02,15,14,19.20
2008,08,02,15,15,19.30
2008,08,02,15,16,19.40
2008,08,02,15,17,19.50
2008,08,02,15,18,19.60
2008,08,02,15,19,19.70
2008,08,02,15,20,19.80
2008,08,02,15,21,19.80
2008,08,02,15,22,19.80
2008,08,02,15,23,19.90
2008,08,02,15,24,19.90
2008,08,02,15,25,19.90
2008,08,02,15,26,20.00
2008,08,02,15,27,20.00
2008,08,02,15,28,20.00
2008,08,02,15,29,20.10
2008,08,02,15,30,20.10
2008,08,02,15,31,20.20
2008,08,02,15,32,20.30
2008,08,02,15,33,20.30
2008,08,02,15,34,20.30
2008,08,02,15,35,20.20
2008,08,02,15,36,20.10
2008,08,02,15,37,19.90
2008,08,02,15,38,19.80
2008,08,02,15,39,19.80
2008,08,02,15,40,19.70
2008,08,02,15,41,19.70
2008,08,02,15,42,19.70
2008,08,02,15,43,19.70
2008,08,02,15,44,19.80
2008,08,02,15,45,19.90
2008,08,02,15,46,20.00
2008,08,02,15,47,20.00
2008,08,02,15,48,20.00
2008,08,02,15,49,20.00
2008,08,02,15,50,20.10
2008,08,02,15,51,20.20
2008,08,02,15,52,20.20
2008,08,02,15,53,20.20
2008,08,02,15,54,20.20
2008,08,02,15,55,20.20
2008,08,02,15,56,20.20
2008,08,02,15,57,20.20
2008,08,02,15,58,20.30
2008,08,02,15,59,20.30
2008,08,02,16,00,20.30
2008,08,02,16,01,20.40
2008,08,02,16,02,20.40
2008,08,02,16,03,20.40
2008,08,02,16,04,20.50
2008,08,02,16,05,20.40
2008,08,02,16,06,20.40
2008,08,02,16,07,20.30
2008,08,02,16,08,20.30
2008,08,02,16,09,20.30
2008,08,02,16,10,20.20
2008,08,02,16,11,20.10
2008,08,02,16,12,20.00
2008,08,02,16,13,19.90
2008,08,02,16,14,19.90
2008,08,02,16,15,19.90
2008,08,02,16,16,20.00
2008,08,02,16,17,20.00
2008,08,02,16,18,20.00
2008,08,02,16,19,19.90
2008,08,02,16,20,19.90
2008,08,02,16,21,19.90
2008,08,02,16,22,19.90
2008,08,02,16,23,20.00
2008,08,02,16,24,20.10
2008,08,02,16,25,20.20
2008,08,02,16,26,20.20
2008,08,02,16,27,20.20
2008,08,02,16,28,20.10
2008,08,02,16,29,20.10
2008,08,02,16,30,20.00
2008,08,02,16,31,20.00
2008,08,02,16,32,20.10
2008,08,02,16,33,20.10
2008,08,02,16,34,20.10
2008,08,02,16,35,20.20
2008,08,02,16,36,20.20
2008,08,02,16,37,20.10
2008,08,02,16,38,20.10
2008,08,02,16,39,20.10
2008,08,02,16,40,20.20
2008,08,02,16,41,20.30
2008,08,02,16,42,20.30
2008,08,02,16,43,20.30
2008,08,02,16,44,20.30
2008,08,02,16,45,20.30
2008,08,02,16,46,20.30
2008,08,02,16,47,20.30
2008,08,02,16,48,20.20
2008,08,02,16,49,20.20
2008,08,02,16,50,20.10
2008,08,02,16,51,20.10
2008,08,02,16,52,20.00
2008,08,02,16,53,20.00
2008,08,02,16,54,20.10
2008,08,02,16,55,20.10
2008,08,02,16,56,20.10
2008,08,02,16,57,20.10
2008,08,02,16,58,20.10
2008,08,02,16,59,20.10
2008,08,02,17,00,20.00
2008,08,02,17,01,19.90
2008,08,02,17,02,19.80
2008,08,02,17,03,19.80
2008,08,02,17,04,19.80
2008,08,02,17,05,19.80
2008,08,02,17,06,19.80
2008,08,02,17,07,19.70
2008,08,02,17,08,19.70
2008,08,02,17,09,19.60
2008,08,02,17,10,19.60
2008,08,02,17,11,19.60
2008,08,02,17,12,19.60
2008,08,02,17,13,19.60
2008,08,02,17,14,19.60
2008,08,02,17,15,19.60
2008,08,02,17,16,19.60
2008,08,02,17,17,19.60
2008,08,02,17,18,19.60
2008,08,02,17,19,19.60
2008,08,02,17,20,19.60
2008,08,02,17,21,19.50
2008,08,02,17,22,19.50
2008,08,02,17,23,19.40
2008,08,02,17,24,19.40
2008,08,02,17,25,19.40
2008,08,02,17,26,19.50
2008,08,02,17,27,19.40
2008,08,02,17,28,19.50
2008,08,02,17,29,19.50
2008,08,02,17,30,19.50
2008,08,02,17,31,19.40
2008,08,02,17,32,19.40
2008,08,02,17,33,19.40
2008,08,02,17,34,19.40
2008,08,02,17,35,19.40
2008,08,02,17,36,19.40
2008,08,02,17,37,19.40
2008,08,02,17,38,19.40
2008,08,02,17,39,19.40
2008,08,02,17,40,19.30
2008,08,02,17,41,19.30
2008,08,02,17,42,19.30
2008,08,02,17,43,19.20
2008,08,02,17,44,19.20
2008,08,02,17,45,19.20
2008,08,02,17,46,19.10
2008,08,02,17,47,19.10
2008,08,02,17,48,19.10
2008,08,02,17,49,19.00
2008,08,02,17,50,18.90